Time,TemperatureF,DewpointF,PressureIn,WindDirection,WindDirectionDegrees,WindSpeedMPH,WindSpeedGustMPH,Humidity,HourlyPrecipIn,Conditions,Clouds,dailyrainin,SoftwareType,DateUTC
2013-01-25 00:02:00,39.9,32.0,30.06,SSW,203,8.0,8.0,73,0.00,,---,0.00,VWS V14.00,2013-01-25 08:02:00,
2013-01-25 00:07:00,39.9,32.0,30.06,SSW,210,7.0,13.0,73,0.00,,---,0.00,VWS V14.00,2013-01-25 08:07:00,
2013-01-25 00:12:00,39.9,32.3,30.06,SSW,195,9.0,12.0,74,0.00,,---,0.00,VWS V14.00,2013-01-25 08:12:00,
2013-01-25 00:18:00,39.9,32.3,30.05,SSW,212,5.0,14.0,74,0.00,,---,0.00,VWS V14.00,2013-01-25 08:18:00,
2013-01-25 00:23:00,40.1,32.5,30.05,SSW,199,7.0,11.0,74,0.00,,---,0.00,VWS V14.00,2013-01-25 08:23:00,
2013-01-25 00:28:00,39.9,32.6,30.05,South,189,13.0,13.0,75,0.00,,---,0.00,VWS V14.00,2013-01-25 08:28:00,
2013-01-25 00:33:00,39.9,32.3,30.04,SSW,212,6.0,12.0,74,0.00,,---,0.00,VWS V14.00,2013-01-25 08:33:00,
2013-01-25 00:38:00,39.8,32.9,30.04,SW,222,5.0,12.0,76,0.00,,---,0.00,VWS V14.00,2013-01-25 08:38:00,
2013-01-25 00:43:00,39.6,33.0,30.04,South,189,8.0,11.0,77,0.00,,---,0.00,VWS V14.00,2013-01-25 08:43:00,
2013-01-25 00:48:00,39.5,32.9,30.04,SSW,213,8.0,13.0,77,0.00,,---,0.00,VWS V14.00,2013-01-25 08:48:00,
2013-01-25 00:53:00,39.3,33.3,30.04,SSW,199,7.0,14.0,79,0.00,,---,0.00,VWS V14.00,2013-01-25 08:53:00,
2013-01-25 00:58:00,39.1,33.5,30.04,South,189,12.0,14.0,80,0.00,,---,0.01,VWS V14.00,2013-01-25 08:58:00,
2013-01-25 01:03:00,38.9,33.6,30.05,SSW,198,7.0,12.0,81,0.00,,---,0.01,VWS V14.00,2013-01-25 09:03:00,
2013-01-25 01:08:00,38.9,33.9,30.05,SSW,198,11.0,18.0,82,0.00,,---,0.01,VWS V14.00,2013-01-25 09:08:00,
2013-01-25 01:13:00,38.9,33.9,30.05,South,189,7.0,13.0,82,0.00,,---,0.01,VWS V14.00,2013-01-25 09:13:00,
2013-01-25 01:18:00,38.9,33.6,30.03,South,186,15.0,15.0,81,0.00,,---,0.01,VWS V14.00,2013-01-25 09:18:00,
2013-01-25 01:24:00,38.9,33.6,30.03,South,186,8.0,13.0,81,0.00,,---,0.01,VWS V14.00,2013-01-25 09:24:00,
2013-01-25 01:29:00,38.9,33.6,30.03,SSW,195,5.0,14.0,81,0.00,,---,0.01,VWS V14.00,2013-01-25 09:29:00,
2013-01-25 01:34:00,38.9,33.3,30.02,South,179,7.0,10.0,80,0.00,,---,0.01,VWS V14.00,2013-01-25 09:34:00,
2013-01-25 01:39:00,38.8,33.5,30.02,SSW,205,5.0,10.0,81,0.00,,---,0.01,VWS V14.00,2013-01-25 09:39:00,
2013-01-25 01:44:00,38.6,33.6,30.02,SSW,192,2.0,10.0,82,0.00,,---,0.01,VWS V14.00,2013-01-25 09:44:00,
2013-01-25 01:49:00,38.5,33.2,30.02,SSW,199,5.0,13.0,81,0.00,,---,0.01,VWS V14.00,2013-01-25 09:49:00,
2013-01-25 01:54:00,38.5,33.5,30.02,SSW,192,5.0,11.0,82,0.00,,---,0.01,VWS V14.00,2013-01-25 09:54:00,
2013-01-25 01:59:00,38.5,33.5,30.02,South,191,7.0,11.0,82,0.00,,---,0.01,VWS V14.00,2013-01-25 09:59:00,
2013-01-25 02:04:00,38.6,33.6,30.02,SSW,193,10.0,12.0,82,0.00,,---,0.01,VWS V14.00,2013-01-25 10:04:00,
2013-01-25 02:09:00,38.6,33.3,30.02,SSW,206,7.0,12.0,81,0.00,,---,0.01,VWS V14.00,2013-01-25 10:09:00,
2013-01-25 02:14:00,38.5,33.5,30.02,SSW,193,6.0,13.0,82,0.00,,---,0.01,VWS V14.00,2013-01-25 10:14:00,
2013-01-25 02:19:00,38.5,33.8,30.02,SW,219,7.0,13.0,83,0.00,,---,0.01,VWS V14.00,2013-01-25 10:19:00,
2013-01-25 02:24:00,38.5,33.2,30.02,SW,222,10.0,10.0,81,0.00,,---,0.01,VWS V14.00,2013-01-25 10:24:00,
2013-01-25 02:29:00,38.6,33.3,30.02,SSW,198,7.0,10.0,81,0.00,,---,0.01,VWS V14.00,2013-01-25 10:29:00,
2013-01-25 02:34:00,38.6,33.3,30.02,SSW,200,6.0,13.0,81,0.00,,---,0.01,VWS V14.00,2013-01-25 10:34:00,
2013-01-25 02:39:00,38.6,33.3,30.02,SSW,202,6.0,13.0,81,0.00,,---,0.01,VWS V14.00,2013-01-25 10:39:00,
2013-01-25 02:45:00,38.8,33.5,30.02,South,189,7.0,12.0,81,0.00,,---,0.01,VWS V14.00,2013-01-25 10:45:00,
2013-01-25 02:50:00,38.8,33.5,30.02,South,186,8.0,12.0,81,0.00,,---,0.01,VWS V14.00,2013-01-25 10:50:00,
2013-01-25 02:55:00,38.8,33.5,30.02,SSW,196,6.0,13.0,81,0.00,,---,0.01,VWS V14.00,2013-01-25 10:55:00,
2013-01-25 03:00:00,38.8,33.8,30.02,SSW,198,6.0,13.0,82,0.00,,---,0.01,VWS V14.00,2013-01-25 11:00:00,
2013-01-25 03:05:00,38.8,33.5,30.02,SSW,199,6.0,12.0,81,0.00,,---,0.01,VWS V14.00,2013-01-25 11:05:00,
2013-01-25 03:10:00,38.8,33.5,30.02,SSW,199,5.0,12.0,81,0.00,,---,0.01,VWS V14.00,2013-01-25 11:10:00,
2013-01-25 03:15:00,38.8,33.8,30.01,SSW,192,11.0,12.0,82,0.00,,---,0.01,VWS V14.00,2013-01-25 11:15:00,
2013-01-25 03:20:00,38.9,33.9,30.01,SW,220,11.0,14.0,82,0.00,,---,0.01,VWS V14.00,2013-01-25 11:20:00,
2013-01-25 03:25:00,38.9,33.6,30.01,SSW,198,7.0,13.0,81,0.00,,---,0.01,VWS V14.00,2013-01-25 11:25:00,
2013-01-25 03:30:00,39.1,34.1,30.01,South,189,8.0,8.0,82,0.00,,---,0.01,VWS V14.00,2013-01-25 11:30:00,
2013-01-25 03:35:00,39.1,33.5,30.01,SSW,203,13.0,16.0,80,0.00,,---,0.01,VWS V14.00,2013-01-25 11:35:00,
2013-01-25 03:40:00,38.9,33.6,30.01,SSW,208,6.0,10.0,81,0.00,,---,0.01,VWS V14.00,2013-01-25 11:40:00,
2013-01-25 03:45:00,38.9,33.9,30.01,SSW,200,6.0,13.0,82,0.00,,---,0.01,VWS V14.00,2013-01-25 11:45:00,
2013-01-25 03:50:00,39.1,33.8,30.01,SSW,198,12.0,13.0,81,0.00,,---,0.01,VWS V14.00,2013-01-25 11:50:00,
2013-01-25 03:56:00,38.9,33.3,30.01,SSW,192,12.0,16.0,80,0.00,,---,0.01,VWS V14.00,2013-01-25 11:56:00,
2013-01-25 04:01:00,38.9,33.6,30.00,SSW,192,10.0,12.0,81,0.00,,---,0.01,VWS V14.00,2013-01-25 12:01:00,
2013-01-25 04:06:00,38.8,33.5,30.00,SSW,202,8.0,12.0,81,0.00,,---,0.01,VWS V14.00,2013-01-25 12:06:00,
2013-01-25 04:11:00,38.8,33.5,30.00,SSW,206,10.0,14.0,81,0.00,,---,0.01,VWS V14.00,2013-01-25 12:11:00,
2013-01-25 04:16:00,38.6,33.6,30.01,South,191,6.0,14.0,82,0.00,,---,0.01,VWS V14.00,2013-01-25 12:16:00,
2013-01-25 04:21:00,38.5,33.8,30.01,SSW,192,5.0,7.0,83,0.00,,---,0.01,VWS V14.00,2013-01-25 12:21:00,
2013-01-25 04:26:00,38.3,33.3,30.01,SSW,206,6.0,11.0,82,0.00,,---,0.01,VWS V14.00,2013-01-25 12:26:00,
2013-01-25 04:31:00,38.3,33.0,30.01,SSW,199,6.0,8.0,81,0.00,,---,0.01,VWS V14.00,2013-01-25 12:31:00,
2013-01-25 04:36:00,38.5,33.5,30.01,SSW,202,5.0,10.0,82,0.00,,---,0.01,VWS V14.00,2013-01-25 12:36:00,
2013-01-25 04:41:00,38.6,33.9,30.01,SW,217,8.0,9.0,83,0.00,,---,0.01,VWS V14.00,2013-01-25 12:41:00,
2013-01-25 04:46:00,38.6,33.9,30.01,SSW,199,14.0,14.0,83,0.00,,---,0.01,VWS V14.00,2013-01-25 12:46:00,
2013-01-25 04:51:00,38.8,33.8,30.01,SSW,199,7.0,14.0,82,0.00,,---,0.01,VWS V14.00,2013-01-25 12:51:00,
2013-01-25 04:56:00,38.9,33.6,30.01,SSW,213,7.0,14.0,81,0.00,,---,0.01,VWS V14.00,2013-01-25 12:56:00,
2013-01-25 05:01:00,38.9,33.3,30.01,South,184,7.0,8.0,80,0.00,,---,0.01,VWS V14.00,2013-01-25 13:01:00,
2013-01-25 05:06:00,38.9,33.9,30.01,SSW,198,7.0,14.0,82,0.00,,---,0.01,VWS V14.00,2013-01-25 13:06:00,
2013-01-25 05:11:00,38.9,33.6,30.01,SSW,192,10.0,11.0,81,0.00,,---,0.01,VWS V14.00,2013-01-25 13:11:00,
2013-01-25 05:16:00,38.8,33.5,30.01,SSW,198,5.0,11.0,81,0.00,,---,0.01,VWS V14.00,2013-01-25 13:16:00,
2013-01-25 05:21:00,38.8,33.8,30.01,SSW,196,5.0,12.0,82,0.00,,---,0.01,VWS V14.00,2013-01-25 13:21:00,
2013-01-25 05:26:00,38.8,33.5,30.01,South,178,7.0,13.0,81,0.00,,---,0.01,VWS V14.00,2013-01-25 13:26:00,
2013-01-25 05:31:00,38.6,33.6,30.01,SSW,196,7.0,8.0,82,0.00,,---,0.01,VWS V14.00,2013-01-25 13:31:00,
2013-01-25 05:37:00,38.5,33.8,30.01,SSW,203,5.0,10.0,83,0.00,,---,0.01,VWS V14.00,2013-01-25 13:37:00,
2013-01-25 05:42:00,38.5,33.8,30.01,SW,222,6.0,10.0,83,0.00,,---,0.01,VWS V14.00,2013-01-25 13:42:00,
2013-01-25 05:47:00,38.3,33.6,30.01,SSW,198,7.0,10.0,83,0.00,,---,0.01,VWS V14.00,2013-01-25 13:47:00,
2013-01-25 05:52:00,38.3,34.2,30.01,SSW,198,7.0,11.0,85,0.00,,---,0.01,VWS V14.00,2013-01-25 13:52:00,
2013-01-25 05:57:00,38.2,34.1,30.01,SSW,200,5.0,12.0,85,0.00,,---,0.01,VWS V14.00,2013-01-25 13:57:00,
2013-01-25 06:02:00,38.3,33.9,30.00,SSW,193,8.0,8.0,84,0.00,,---,0.01,VWS V14.00,2013-01-25 14:02:00,
2013-01-25 06:07:00,38.3,34.2,30.00,South,191,7.0,12.0,85,0.00,,---,0.01,VWS V14.00,2013-01-25 14:07:00,
2013-01-25 06:12:00,38.3,34.2,30.00,SSW,200,4.0,10.0,85,0.00,,---,0.01,VWS V14.00,2013-01-25 14:12:00,
2013-01-25 06:17:00,38.0,34.2,30.01,South,189,5.0,10.0,86,0.00,,---,0.01,VWS V14.00,2013-01-25 14:17:00,
2013-01-25 06:22:00,38.0,33.3,30.01,SSW,213,7.0,7.0,83,0.00,,---,0.01,VWS V14.00,2013-01-25 14:22:00,
2013-01-25 06:27:00,38.0,34.2,30.01,SSW,193,11.0,12.0,86,0.00,,---,0.01,VWS V14.00,2013-01-25 14:27:00,
2013-01-25 06:33:00,38.0,33.9,30.01,SSW,208,6.0,8.0,85,0.00,,---,0.01,VWS V14.00,2013-01-25 14:33:00,
2013-01-25 06:38:00,38.0,34.2,30.01,SSW,193,9.0,13.0,86,0.00,,---,0.01,VWS V14.00,2013-01-25 14:38:00,
2013-01-25 06:43:00,38.2,34.1,30.01,SSW,195,7.0,11.0,85,0.00,,---,0.01,VWS V14.00,2013-01-25 14:43:00,
2013-01-25 06:48:00,38.2,33.5,30.02,SSW,198,10.0,12.0,83,0.00,,---,0.01,VWS V14.00,2013-01-25 14:48:00,
2013-01-25 06:53:00,38.3,34.2,30.02,SSW,192,8.0,12.0,85,0.00,,---,0.01,VWS V14.00,2013-01-25 14:53:00,
2013-01-25 06:58:00,38.5,34.4,30.02,South,189,6.0,13.0,85,0.00,,---,0.01,VWS V14.00,2013-01-25 14:58:00,
2013-01-25 07:03:00,38.5,34.7,30.00,SSW,202,6.0,10.0,86,0.00,,---,0.02,VWS V14.00,2013-01-25 15:03:00,
2013-01-25 07:09:00,38.5,34.4,30.00,South,181,9.0,14.0,85,0.00,,---,0.02,VWS V14.00,2013-01-25 15:09:00,
2013-01-25 07:14:00,38.6,34.8,30.00,SSW,206,11.0,14.0,86,0.00,,---,0.02,VWS V14.00,2013-01-25 15:14:00,
2013-01-25 07:19:00,38.6,34.5,30.01,SSW,209,7.0,18.0,85,0.00,,---,0.02,VWS V14.00,2013-01-25 15:19:00,
2013-01-25 07:24:00,38.6,34.2,30.01,SSW,195,7.0,11.0,84,0.00,,---,0.02,VWS V14.00,2013-01-25 15:24:00,
2013-01-25 07:29:00,38.5,34.4,30.01,SSW,202,7.0,12.0,85,0.00,,---,0.03,VWS V14.00,2013-01-25 15:29:00,
2013-01-25 07:34:00,38.5,34.4,30.00,SSW,206,6.0,11.0,85,0.00,,---,0.03,VWS V14.00,2013-01-25 15:34:00,
2013-01-25 07:39:00,38.5,34.4,30.00,SSW,192,3.0,11.0,85,0.00,,---,0.03,VWS V14.00,2013-01-25 15:39:00,
2013-01-25 07:44:00,38.5,34.4,30.00,SSW,198,7.0,12.0,85,0.04,,---,0.04,VWS V14.00,2013-01-25 15:44:00,
2013-01-25 07:49:00,38.5,34.1,30.00,SSW,212,6.0,12.0,84,0.04,,---,0.04,VWS V14.00,2013-01-25 15:49:00,
2013-01-25 07:54:00,38.3,34.2,30.00,SSW,193,5.0,10.0,85,0.04,,---,0.04,VWS V14.00,2013-01-25 15:54:00,
2013-01-25 07:59:00,38.5,34.4,30.01,SSW,213,6.0,10.0,85,0.00,,---,0.04,VWS V14.00,2013-01-25 15:59:00,
2013-01-25 08:05:00,38.5,34.1,30.01,SSW,205,5.0,13.0,84,0.00,,---,0.04,VWS V14.00,2013-01-25 16:05:00,
2013-01-25 08:10:00,38.5,34.4,30.01,SSW,195,5.0,13.0,85,0.00,,---,0.04,VWS V14.00,2013-01-25 16:10:00,
2013-01-25 08:15:00,38.6,34.5,30.02,SSW,203,5.0,9.0,85,0.00,,---,0.04,VWS V14.00,2013-01-25 16:15:00,
2013-01-25 08:20:00,38.6,34.8,30.02,SSW,195,6.0,13.0,86,0.00,,---,0.04,VWS V14.00,2013-01-25 16:20:00,
2013-01-25 08:25:00,38.6,34.2,30.02,SSW,196,8.0,8.0,84,0.00,,---,0.05,VWS V14.00,2013-01-25 16:25:00,
2013-01-25 08:30:00,38.6,34.8,30.01,South,191,3.0,10.0,86,0.00,,---,0.05,VWS V14.00,2013-01-25 16:30:00,
2013-01-25 08:35:00,38.8,35.0,30.01,SSW,199,3.0,7.0,86,0.00,,---,0.05,VWS V14.00,2013-01-25 16:35:00,
2013-01-25 08:40:00,38.6,34.8,30.01,SSW,199,2.0,3.0,86,0.00,,---,0.05,VWS V14.00,2013-01-25 16:40:00,
2013-01-25 08:45:00,38.5,34.7,30.01,SSW,199,2.0,5.0,86,0.00,,---,0.05,VWS V14.00,2013-01-25 16:45:00,
2013-01-25 08:51:00,38.6,34.8,30.01,SSW,199,4.0,4.0,86,0.00,,---,0.05,VWS V14.00,2013-01-25 16:51:00,
2013-01-25 08:56:00,38.9,35.1,30.01,SSW,193,2.0,8.0,86,0.00,,---,0.05,VWS V14.00,2013-01-25 16:56:00,
2013-01-25 09:01:00,38.9,35.1,30.01,SSW,193,2.0,3.0,86,0.00,,---,0.05,VWS V14.00,2013-01-25 17:01:00,
2013-01-25 09:06:00,38.9,35.1,30.01,SSW,206,3.0,5.0,86,0.00,,---,0.05,VWS V14.00,2013-01-25 17:06:00,
2013-01-25 09:11:00,38.9,35.4,30.01,SSW,205,5.0,6.0,87,0.00,,---,0.05,VWS V14.00,2013-01-25 17:11:00,
2013-01-25 09:16:00,39.1,35.0,30.01,South,186,5.0,7.0,85,0.00,,---,0.05,VWS V14.00,2013-01-25 17:16:00,
2013-01-25 09:21:00,39.3,35.5,30.01,SSW,198,7.0,7.0,86,0.00,,---,0.05,VWS V14.00,2013-01-25 17:21:00,
2013-01-25 09:26:00,39.6,35.2,30.01,SSW,198,4.0,10.0,84,0.00,,---,0.05,VWS V14.00,2013-01-25 17:26:00,
2013-01-25 09:31:00,39.9,35.8,30.00,SSE,167,5.0,7.0,85,0.00,,---,0.05,VWS V14.00,2013-01-25 17:31:00,
2013-01-25 09:36:00,40.2,35.2,30.00,SSW,200,8.0,12.0,82,0.00,,---,0.05,VWS V14.00,2013-01-25 17:36:00,
2013-01-25 09:41:00,40.5,36.0,30.00,SSW,192,6.0,8.0,84,0.00,,---,0.05,VWS V14.00,2013-01-25 17:41:00,
2013-01-25 09:46:00,40.3,36.2,29.99,South,191,7.0,8.0,85,0.00,,---,0.05,VWS V14.00,2013-01-25 17:46:00,
2013-01-25 09:51:00,40.3,35.9,29.99,SSW,192,5.0,6.0,84,0.00,,---,0.05,VWS V14.00,2013-01-25 17:51:00,
2013-01-25 09:57:00,40.2,36.1,29.99,SSW,198,5.0,8.0,85,0.00,,---,0.05,VWS V14.00,2013-01-25 17:57:00,
2013-01-25 10:02:00,40.3,35.9,30.01,SSW,199,6.0,11.0,84,0.00,,---,0.05,VWS V14.00,2013-01-25 18:02:00,
2013-01-25 10:07:00,40.2,36.1,30.01,SSW,198,3.0,11.0,85,0.00,,---,0.05,VWS V14.00,2013-01-25 18:07:00,
2013-01-25 10:12:00,40.2,35.8,30.01,SSW,202,3.0,8.0,84,0.00,,---,0.05,VWS V14.00,2013-01-25 18:12:00,
2013-01-25 10:17:00,40.2,36.1,30.01,South,186,5.0,8.0,85,0.00,,---,0.05,VWS V14.00,2013-01-25 18:17:00,
2013-01-25 10:22:00,40.1,35.7,30.01,SSW,199,7.0,7.0,84,0.00,,---,0.05,VWS V14.00,2013-01-25 18:22:00,
2013-01-25 10:27:00,40.1,35.7,30.01,SSW,193,7.0,10.0,84,0.00,,---,0.05,VWS V14.00,2013-01-25 18:27:00,
2013-01-25 10:32:00,40.1,35.7,30.02,SSW,192,7.0,12.0,84,0.00,,---,0.05,VWS V14.00,2013-01-25 18:32:00,
2013-01-25 10:37:00,39.9,35.8,30.02,SSW,192,10.0,15.0,85,0.00,,---,0.06,VWS V14.00,2013-01-25 18:37:00,
2013-01-25 10:42:00,39.9,35.5,30.02,SSW,199,7.0,12.0,84,0.00,,---,0.06,VWS V14.00,2013-01-25 18:42:00,
2013-01-25 10:47:00,40.1,36.0,30.00,SSW,208,7.0,12.0,85,0.00,,---,0.06,VWS V14.00,2013-01-25 18:47:00,
2013-01-25 10:52:00,40.3,35.2,30.00,SSW,193,7.0,13.0,82,0.00,,---,0.06,VWS V14.00,2013-01-25 18:52:00,
2013-01-25 10:57:00,40.6,35.5,30.00,SSW,199,7.0,13.0,82,0.00,,---,0.06,VWS V14.00,2013-01-25 18:57:00,
2013-01-25 11:03:00,40.9,35.8,29.97,SSW,205,3.0,14.0,82,0.00,,---,0.06,VWS V14.00,2013-01-25 19:03:00,
2013-01-25 11:08:00,41.1,36.0,29.97,SSW,209,6.0,14.0,82,0.00,,---,0.06,VWS V14.00,2013-01-25 19:08:00,
2013-01-25 11:13:00,41.2,35.8,29.97,SSW,205,6.0,9.0,81,0.00,,---,0.06,VWS V14.00,2013-01-25 19:13:00,
2013-01-25 11:18:00,41.2,36.1,29.98,SSW,199,5.0,9.0,82,0.00,,---,0.06,VWS V14.00,2013-01-25 19:18:00,
2013-01-25 11:23:00,41.1,36.0,29.98,SSW,196,4.0,8.0,82,0.00,,---,0.06,VWS V14.00,2013-01-25 19:23:00,
2013-01-25 11:28:00,40.9,36.5,29.98,SSW,198,5.0,9.0,84,0.00,,---,0.06,VWS V14.00,2013-01-25 19:28:00,
2013-01-25 11:33:00,40.8,36.3,29.98,South,189,5.0,10.0,84,0.00,,---,0.06,VWS V14.00,2013-01-25 19:33:00,
2013-01-25 11:38:00,40.6,35.5,29.98,SSW,195,4.0,10.0,82,0.00,,---,0.06,VWS V14.00,2013-01-25 19:38:00,
2013-01-25 11:43:00,40.8,36.3,29.98,South,191,5.0,8.0,84,0.00,,---,0.06,VWS V14.00,2013-01-25 19:43:00,
2013-01-25 11:48:00,40.8,36.3,29.97,South,185,7.0,12.0,84,0.00,,---,0.06,VWS V14.00,2013-01-25 19:48:00,
2013-01-25 11:53:00,40.8,36.0,29.97,SSW,199,7.0,10.0,83,0.00,,---,0.06,VWS V14.00,2013-01-25 19:53:00,
2013-01-25 11:58:00,40.6,36.2,29.97,SSW,202,7.0,13.0,84,0.00,,---,0.06,VWS V14.00,2013-01-25 19:58:00,
2013-01-25 12:04:00,40.5,36.0,29.97,South,191,4.0,7.0,84,0.00,,---,0.06,VWS V14.00,2013-01-25 20:04:00,
2013-01-25 12:09:00,40.3,35.9,29.97,SSW,200,7.0,14.0,84,0.00,,---,0.06,VWS V14.00,2013-01-25 20:09:00,
2013-01-25 12:14:00,40.2,36.1,29.97,South,186,10.0,11.0,85,0.00,,---,0.06,VWS V14.00,2013-01-25 20:14:00,
2013-01-25 12:19:00,40.2,35.8,29.98,SSW,203,8.0,13.0,84,0.00,,---,0.06,VWS V14.00,2013-01-25 20:19:00,
2013-01-25 12:24:00,40.2,35.8,29.98,SSW,192,8.0,12.0,84,0.00,,---,0.07,VWS V14.00,2013-01-25 20:24:00,
2013-01-25 12:29:00,40.2,35.8,29.98,South,172,7.0,13.0,84,0.00,,---,0.07,VWS V14.00,2013-01-25 20:29:00,
2013-01-25 12:34:00,40.3,35.6,29.97,SSW,208,7.0,18.0,83,0.00,,---,0.07,VWS V14.00,2013-01-25 20:34:00,
2013-01-25 12:39:00,40.5,35.5,29.97,SSW,199,12.0,19.0,82,0.00,,---,0.07,VWS V14.00,2013-01-25 20:39:00,
2013-01-25 12:44:00,40.6,35.5,29.96,South,189,10.0,14.0,82,0.00,,---,0.07,VWS V14.00,2013-01-25 20:44:00,
2013-01-25 12:49:00,40.6,35.8,29.96,SSW,198,7.0,16.0,83,0.00,,---,0.07,VWS V14.00,2013-01-25 20:49:00,
2013-01-25 12:54:00,40.8,35.7,29.96,SSW,196,8.0,16.0,82,0.00,,---,0.07,VWS V14.00,2013-01-25 20:54:00,
2013-01-25 12:59:00,40.8,35.4,29.95,South,189,10.0,16.0,81,0.00,,---,0.07,VWS V14.00,2013-01-25 20:59:00,
2013-01-25 13:05:00,40.9,35.8,29.95,SSW,195,7.0,12.0,82,0.00,,---,0.07,VWS V14.00,2013-01-25 21:05:00,
2013-01-25 13:10:00,40.9,35.5,29.95,SSW,199,10.0,19.0,81,0.00,,---,0.07,VWS V14.00,2013-01-25 21:10:00,
2013-01-25 13:15:00,41.1,36.0,29.92,SSW,199,10.0,13.0,82,0.00,,---,0.07,VWS V14.00,2013-01-25 21:15:00,
2013-01-25 13:20:00,41.1,35.4,29.92,South,189,4.0,14.0,80,0.00,,---,0.07,VWS V14.00,2013-01-25 21:20:00,
2013-01-25 13:25:00,41.1,35.4,29.92,SSW,196,6.0,10.0,80,0.00,,---,0.07,VWS V14.00,2013-01-25 21:25:00,
2013-01-25 13:30:00,41.2,35.5,29.92,South,185,6.0,14.0,80,0.00,,---,0.07,VWS V14.00,2013-01-25 21:30:00,
2013-01-25 13:35:00,41.2,35.2,29.92,South,189,5.0,14.0,79,0.00,,---,0.07,VWS V14.00,2013-01-25 21:35:00,
2013-01-25 13:40:00,41.2,35.2,29.92,SSW,206,6.0,17.0,79,0.00,,---,0.07,VWS V14.00,2013-01-25 21:40:00,
2013-01-25 13:45:00,41.3,35.3,29.92,SSW,202,8.0,16.0,79,0.00,,---,0.07,VWS V14.00,2013-01-25 21:45:00,
2013-01-25 13:50:00,41.2,34.9,29.92,SSW,196,6.0,16.0,78,0.00,,---,0.07,VWS V14.00,2013-01-25 21:50:00,
2013-01-25 13:55:00,41.2,35.5,29.92,South,191,5.0,10.0,80,0.00,,---,0.07,VWS V14.00,2013-01-25 21:55:00,
2013-01-25 14:00:00,41.2,35.5,29.91,South,191,5.0,10.0,80,0.00,,---,0.07,VWS V14.00,2013-01-25 22:00:00,
2013-01-25 14:05:00,41.2,34.9,29.91,SSW,195,10.0,14.0,78,0.00,,---,0.07,VWS V14.00,2013-01-25 22:05:00,
2013-01-25 14:10:00,41.3,35.3,29.91,SSW,198,8.0,8.0,79,0.00,,---,0.07,VWS V14.00,2013-01-25 22:10:00,
2013-01-25 14:15:00,41.3,34.7,29.91,SSW,212,5.0,13.0,77,0.00,,---,0.07,VWS V14.00,2013-01-25 22:15:00,
2013-01-25 14:20:00,41.3,35.6,29.91,SSW,208,2.0,5.0,80,0.00,,---,0.07,VWS V14.00,2013-01-25 22:20:00,
2013-01-25 14:25:00,41.3,35.3,29.91,SSW,193,6.0,12.0,79,0.00,,---,0.07,VWS V14.00,2013-01-25 22:25:00,
2013-01-25 14:30:00,41.5,35.2,29.91,SW,223,7.0,12.0,78,0.00,,---,0.07,VWS V14.00,2013-01-25 22:30:00,
2013-01-25 14:35:00,41.5,35.2,29.91,SSW,196,2.0,12.0,78,0.00,,---,0.07,VWS V14.00,2013-01-25 22:35:00,
2013-01-25 14:41:00,41.5,35.2,29.91,SSW,196,6.0,6.0,78,0.00,,---,0.07,VWS V14.00,2013-01-25 22:41:00,
2013-01-25 14:46:00,41.3,34.7,29.90,SSW,193,7.0,13.0,77,0.00,,---,0.07,VWS V14.00,2013-01-25 22:46:00,
2013-01-25 14:51:00,41.3,35.0,29.90,SSW,203,10.0,11.0,78,0.00,,---,0.07,VWS V14.00,2013-01-25 22:51:00,
2013-01-25 14:56:00,41.5,34.8,29.90,SSW,199,6.0,12.0,77,0.00,,---,0.07,VWS V14.00,2013-01-25 22:56:00,
2013-01-25 15:01:00,41.5,34.8,29.90,SSW,192,2.0,7.0,77,0.00,,---,0.07,VWS V14.00,2013-01-25 23:01:00,
2013-01-25 15:06:00,41.3,35.0,29.90,SSW,195,2.0,7.0,78,0.00,,---,0.07,VWS V14.00,2013-01-25 23:06:00,
2013-01-25 15:11:00,41.3,34.3,29.90,South,181,5.0,7.0,76,0.00,,---,0.07,VWS V14.00,2013-01-25 23:11:00,
2013-01-25 15:16:00,41.3,34.0,29.89,SSW,192,5.0,7.0,75,0.00,,---,0.07,VWS V14.00,2013-01-25 23:16:00,
2013-01-25 15:21:00,41.3,34.0,29.89,SSW,192,7.0,10.0,75,0.00,,---,0.07,VWS V14.00,2013-01-25 23:21:00,
2013-01-25 15:26:00,41.5,33.8,29.89,SSW,205,4.0,13.0,74,0.00,,---,0.07,VWS V14.00,2013-01-25 23:26:00,
2013-01-25 15:31:00,41.6,34.3,29.89,SSW,199,4.0,8.0,75,0.00,,---,0.07,VWS V14.00,2013-01-25 23:31:00,
2013-01-25 15:36:00,41.5,34.5,29.89,SSW,198,5.0,8.0,76,0.00,,---,0.07,VWS V14.00,2013-01-25 23:36:00,
2013-01-25 15:41:00,41.5,34.5,29.89,SSW,209,6.0,6.0,76,0.00,,---,0.07,VWS V14.00,2013-01-25 23:41:00,
2013-01-25 15:46:00,41.6,34.3,29.89,SSW,200,6.0,12.0,75,0.00,,---,0.07,VWS V14.00,2013-01-25 23:46:00,
2013-01-25 15:51:00,41.5,34.2,29.89,SW,223,2.0,5.0,75,0.00,,---,0.07,VWS V14.00,2013-01-25 23:51:00,
2013-01-25 15:56:00,41.5,34.5,29.89,South,182,8.0,12.0,76,0.00,,---,0.07,VWS V14.00,2013-01-25 23:56:00,
2013-01-25 16:01:00,41.6,33.9,29.88,SSW,198,6.0,7.0,74,0.00,,---,0.07,VWS V14.00,2013-01-26 00:01:00,
2013-01-25 16:06:00,41.5,34.5,29.88,SSW,203,5.0,12.0,76,0.00,,---,0.07,VWS V14.00,2013-01-26 00:06:00,
2013-01-25 16:11:00,41.3,34.0,29.88,SSW,192,5.0,6.0,75,0.00,,---,0.07,VWS V14.00,2013-01-26 00:11:00,
2013-01-25 16:17:00,41.3,34.3,29.87,SW,229,7.0,10.0,76,0.00,,---,0.07,VWS V14.00,2013-01-26 00:17:00,
2013-01-25 16:22:00,41.5,34.2,29.87,SSW,202,5.0,12.0,75,0.00,,---,0.07,VWS V14.00,2013-01-26 00:22:00,
2013-01-25 16:27:00,41.3,35.0,29.87,SSW,205,6.0,12.0,78,0.00,,---,0.07,VWS V14.00,2013-01-26 00:27:00,
2013-01-25 16:32:00,41.3,34.3,29.87,SW,226,3.0,11.0,76,0.00,,---,0.07,VWS V14.00,2013-01-26 00:32:00,
2013-01-25 16:37:00,41.2,34.5,29.87,SSW,195,8.0,14.0,77,0.00,,---,0.07,VWS V14.00,2013-01-26 00:37:00,
2013-01-25 16:42:00,41.3,34.0,29.87,SSW,196,6.0,12.0,75,0.00,,---,0.07,VWS V14.00,2013-01-26 00:42:00,
2013-01-25 16:47:00,41.3,34.3,29.87,SSW,208,10.0,13.0,76,0.00,,---,0.07,VWS V14.00,2013-01-26 00:47:00,
2013-01-25 16:52:00,41.2,34.5,29.87,SW,220,6.0,14.0,77,0.00,,---,0.07,VWS V14.00,2013-01-26 00:52:00,
2013-01-25 16:57:00,41.1,34.8,29.87,SSW,206,7.0,16.0,78,0.00,,---,0.07,VWS V14.00,2013-01-26 00:57:00,
2013-01-25 17:02:00,41.1,34.8,29.86,SSW,196,7.0,14.0,78,0.00,,---,0.07,VWS V14.00,2013-01-26 01:02:00,
2013-01-25 17:07:00,41.2,34.2,29.86,SW,215,7.0,18.0,76,0.00,,---,0.07,VWS V14.00,2013-01-26 01:07:00,
2013-01-25 17:12:00,41.1,34.5,29.86,SSW,199,10.0,13.0,77,0.00,,---,0.07,VWS V14.00,2013-01-26 01:12:00,
2013-01-25 17:17:00,41.2,34.5,29.87,SW,223,7.0,14.0,77,0.00,,---,0.07,VWS V14.00,2013-01-26 01:17:00,
2013-01-25 17:22:00,41.1,34.5,29.87,SSW,206,6.0,12.0,77,0.00,,---,0.07,VWS V14.00,2013-01-26 01:22:00,
2013-01-25 17:27:00,41.1,34.5,29.87,SW,227,8.0,14.0,77,0.00,,---,0.07,VWS V14.00,2013-01-26 01:27:00,
2013-01-25 17:33:00,41.2,34.9,29.87,SSW,206,10.0,17.0,78,0.00,,---,0.07,VWS V14.00,2013-01-26 01:33:00,
2013-01-25 17:38:00,41.2,34.5,29.87,SSW,200,10.0,17.0,77,0.00,,---,0.07,VWS V14.00,2013-01-26 01:38:00,
2013-01-25 17:43:00,40.9,35.2,29.87,SW,215,7.0,12.0,80,0.00,,---,0.07,VWS V14.00,2013-01-26 01:43:00,
2013-01-25 17:48:00,40.8,34.8,29.87,SSW,193,4.0,16.0,79,0.00,,---,0.07,VWS V14.00,2013-01-26 01:48:00,
2013-01-25 17:53:00,40.6,34.6,29.87,SSW,200,6.0,17.0,79,0.00,,---,0.07,VWS V14.00,2013-01-26 01:53:00,
2013-01-25 17:58:00,40.5,34.5,29.87,SSW,196,10.0,17.0,79,0.00,,---,0.07,VWS V14.00,2013-01-26 01:58:00,
2013-01-25 18:03:00,40.6,34.6,29.86,SSW,210,10.0,13.0,79,0.00,,---,0.07,VWS V14.00,2013-01-26 02:03:00,
2013-01-25 18:08:00,40.5,34.5,29.86,SSW,200,10.0,14.0,79,0.00,,---,0.07,VWS V14.00,2013-01-26 02:08:00,
2013-01-25 18:13:00,40.5,34.5,29.86,SW,234,11.0,19.0,79,0.00,,---,0.07,VWS V14.00,2013-01-26 02:13:00,
2013-01-25 18:18:00,40.3,34.6,29.85,South,191,11.0,19.0,80,0.00,,---,0.07,VWS V14.00,2013-01-26 02:18:00,
2013-01-25 18:23:00,40.3,34.3,29.85,SSW,196,7.0,12.0,79,0.00,,---,0.07,VWS V14.00,2013-01-26 02:23:00,
2013-01-25 18:28:00,40.3,34.6,29.85,SSW,203,7.0,17.0,80,0.00,,---,0.07,VWS V14.00,2013-01-26 02:28:00,
2013-01-25 18:33:00,40.2,34.5,29.86,South,191,12.0,14.0,80,0.00,,---,0.07,VWS V14.00,2013-01-26 02:33:00,
2013-01-25 18:38:00,40.1,34.1,29.86,SSW,199,7.0,14.0,79,0.00,,---,0.07,VWS V14.00,2013-01-26 02:38:00,
2013-01-25 18:43:00,39.9,34.2,29.86,South,188,5.0,11.0,80,0.00,,---,0.07,VWS V14.00,2013-01-26 02:43:00,
2013-01-25 18:48:00,39.9,34.2,29.85,SSW,195,7.0,11.0,80,0.00,,---,0.07,VWS V14.00,2013-01-26 02:48:00,
2013-01-25 18:53:00,39.9,34.2,29.85,SSW,208,11.0,14.0,80,0.00,,---,0.07,VWS V14.00,2013-01-26 02:53:00,
2013-01-25 18:58:00,39.9,34.2,29.85,SSW,196,7.0,14.0,80,0.00,,---,0.07,VWS V14.00,2013-01-26 02:58:00,
2013-01-25 19:04:00,40.2,34.2,29.85,SSW,212,11.0,13.0,79,0.00,,---,0.07,VWS V14.00,2013-01-26 03:04:00,
2013-01-25 19:09:00,40.2,33.9,29.85,South,189,7.0,13.0,78,0.00,,---,0.07,VWS V14.00,2013-01-26 03:09:00,
2013-01-25 19:14:00,40.3,33.7,29.85,SSW,209,8.0,10.0,77,0.00,,---,0.07,VWS V14.00,2013-01-26 03:14:00,
2013-01-25 19:19:00,40.5,34.2,29.83,SSW,210,7.0,11.0,78,0.00,,---,0.07,VWS V14.00,2013-01-26 03:19:00,
2013-01-25 19:24:00,40.6,34.3,29.83,South,191,6.0,13.0,78,0.00,,---,0.07,VWS V14.00,2013-01-26 03:24:00,
2013-01-25 19:29:00,40.6,34.3,29.83,SSW,193,12.0,13.0,78,0.00,,---,0.07,VWS V14.00,2013-01-26 03:29:00,
2013-01-25 19:34:00,40.6,34.3,29.83,South,189,8.0,12.0,78,0.00,,---,0.07,VWS V14.00,2013-01-26 03:34:00,
2013-01-25 19:39:00,40.5,34.5,29.83,SSW,193,7.0,14.0,79,0.00,,---,0.07,VWS V14.00,2013-01-26 03:39:00,
2013-01-25 19:44:00,40.2,34.8,29.83,SSW,193,5.0,10.0,81,0.00,,---,0.07,VWS V14.00,2013-01-26 03:44:00,
2013-01-25 19:49:00,40.2,34.5,29.84,SSW,209,7.0,20.0,80,0.00,,---,0.07,VWS V14.00,2013-01-26 03:49:00,
2013-01-25 19:54:00,40.1,34.1,29.84,South,186,10.0,11.0,79,0.00,,---,0.07,VWS V14.00,2013-01-26 03:54:00,
2013-01-25 19:59:00,40.2,34.2,29.84,SSW,202,3.0,12.0,79,0.00,,---,0.07,VWS V14.00,2013-01-26 03:59:00,
2013-01-25 20:04:00,39.9,34.5,29.84,SSW,209,5.0,12.0,81,0.00,,---,0.07,VWS V14.00,2013-01-26 04:04:00,
2013-01-25 20:09:00,39.9,34.2,29.84,SSW,198,5.0,12.0,80,0.00,,---,0.07,VWS V14.00,2013-01-26 04:09:00,
2013-01-25 20:14:00,39.8,34.5,29.83,SSW,195,8.0,10.0,81,0.00,,---,0.07,VWS V14.00,2013-01-26 04:14:00,
2013-01-25 20:19:00,39.6,34.3,29.83,SSW,200,7.0,14.0,81,0.00,,---,0.07,VWS V14.00,2013-01-26 04:19:00,
2013-01-25 20:25:00,39.5,34.2,29.83,SSW,192,5.0,10.0,81,0.00,,---,0.07,VWS V14.00,2013-01-26 04:25:00,
2013-01-25 20:30:00,39.3,33.7,29.83,SSW,192,4.0,10.0,80,0.00,,---,0.07,VWS V14.00,2013-01-26 04:30:00,
2013-01-25 20:35:00,39.6,34.0,29.83,SSW,208,1.0,10.0,80,0.00,,---,0.07,VWS V14.00,2013-01-26 04:35:00,
2013-01-25 20:40:00,39.2,33.9,29.83,SSW,208,0.0,10.0,81,0.00,,---,0.07,VWS V14.00,2013-01-26 04:40:00,
2013-01-25 20:45:00,38.8,33.8,29.84,SSW,208,3.0,5.0,82,0.00,,---,0.07,VWS V14.00,2013-01-26 04:45:00,
2013-01-25 20:50:00,38.8,33.8,29.84,SSW,208,1.0,5.0,82,0.00,,---,0.07,VWS V14.00,2013-01-26 04:50:00,
2013-01-25 20:55:00,38.5,33.5,29.84,SSW,208,0.0,2.0,82,0.00,,---,0.07,VWS V14.00,2013-01-26 04:55:00,
2013-01-25 21:00:00,38.3,33.6,29.85,SSW,208,2.0,3.0,83,0.00,,---,0.07,VWS V14.00,2013-01-26 05:00:00,
2013-01-25 21:05:00,38.0,33.3,29.85,SSW,208,0.0,2.0,83,0.00,,---,0.07,VWS V14.00,2013-01-26 05:05:00,
2013-01-25 21:08:00,37.9,33.2,29.85,SSW,208,1.0,2.0,83,0.00,,---,0.07,VWS V14.00,2013-01-26 05:08:00,
2013-01-25 21:13:00,37.8,33.4,29.85,SSW,208,2.0,2.0,84,0.00,,---,0.07,VWS V14.00,2013-01-26 05:13:00,
2013-01-25 21:18:00,37.8,33.4,29.84,SSW,208,2.0,3.0,84,0.00,,---,0.07,VWS V14.00,2013-01-26 05:18:00,
2013-01-25 21:23:00,37.9,33.8,29.84,SSW,205,3.0,6.0,85,0.00,,---,0.07,VWS V14.00,2013-01-26 05:23:00,
2013-01-25 21:28:00,38.3,34.5,29.84,South,188,3.0,7.0,86,0.00,,---,0.08,VWS V14.00,2013-01-26 05:28:00,
2013-01-25 21:33:00,38.5,34.4,29.84,South,188,2.0,5.0,85,0.00,,---,0.08,VWS V14.00,2013-01-26 05:33:00,
2013-01-25 21:38:00,38.6,34.5,29.84,South,188,6.0,8.0,85,0.00,,---,0.08,VWS V14.00,2013-01-26 05:38:00,
2013-01-25 21:43:00,38.6,34.2,29.84,South,189,5.0,7.0,84,0.00,,---,0.08,VWS V14.00,2013-01-26 05:43:00,
2013-01-25 21:49:00,38.5,33.8,29.84,SSW,203,5.0,8.0,83,0.00,,---,0.08,VWS V14.00,2013-01-26 05:49:00,
2013-01-25 21:54:00,38.3,33.6,29.84,South,191,8.0,10.0,83,0.00,,---,0.08,VWS V14.00,2013-01-26 05:54:00,
2013-01-25 21:59:00,38.3,33.9,29.84,SSW,198,3.0,10.0,84,0.00,,---,0.08,VWS V14.00,2013-01-26 05:59:00,
2013-01-25 22:04:00,38.2,33.5,29.84,SSW,195,6.0,7.0,83,0.00,,---,0.08,VWS V14.00,2013-01-26 06:04:00,
2013-01-25 22:09:00,38.0,33.0,29.84,SSW,195,6.0,8.0,82,0.00,,---,0.08,VWS V14.00,2013-01-26 06:09:00,
2013-01-25 22:14:00,38.0,33.3,29.84,SSW,193,6.0,7.0,83,0.00,,---,0.08,VWS V14.00,2013-01-26 06:14:00,
2013-01-25 22:19:00,38.0,33.0,29.84,SSW,199,7.0,10.0,82,0.00,,---,0.08,VWS V14.00,2013-01-26 06:19:00,
2013-01-25 22:24:00,38.0,32.4,29.84,SSW,196,6.0,10.0,80,0.00,,---,0.08,VWS V14.00,2013-01-26 06:24:00,
2013-01-25 22:29:00,37.9,32.9,29.84,SSW,208,2.0,10.0,82,0.00,,---,0.08,VWS V14.00,2013-01-26 06:29:00,
2013-01-25 22:34:00,37.9,32.9,29.84,SSW,192,4.0,7.0,82,0.00,,---,0.08,VWS V14.00,2013-01-26 06:34:00,
2013-01-25 22:39:00,37.6,31.7,29.84,SSW,192,4.0,7.0,79,0.00,,---,0.08,VWS V14.00,2013-01-26 06:39:00,
2013-01-25 22:44:00,37.5,32.2,29.84,SSW,192,5.0,6.0,81,0.00,,---,0.08,VWS V14.00,2013-01-26 06:44:00,
2013-01-25 22:49:00,37.5,31.9,29.84,SSW,192,3.0,7.0,80,0.00,,---,0.08,VWS V14.00,2013-01-26 06:49:00,
2013-01-25 22:54:00,37.3,31.7,29.84,SSW,192,2.0,5.0,80,0.00,,---,0.08,VWS V14.00,2013-01-26 06:54:00,
2013-01-25 22:59:00,37.2,31.9,29.85,SSW,192,2.0,5.0,81,0.00,,---,0.08,VWS V14.00,2013-01-26 06:59:00,
2013-01-25 23:04:00,37.2,31.9,29.85,SSW,192,2.0,6.0,81,0.00,,---,0.08,VWS V14.00,2013-01-26 07:04:00,
2013-01-25 23:10:00,37.2,31.6,29.85,SSW,196,2.0,6.0,80,0.00,,---,0.08,VWS V14.00,2013-01-26 07:10:00,
2013-01-25 23:15:00,37.0,31.4,29.85,SSW,198,2.0,6.0,80,0.00,,---,0.08,VWS V14.00,2013-01-26 07:15:00,
2013-01-25 23:20:00,37.0,31.7,29.85,SSW,198,2.0,6.0,81,0.00,,---,0.08,VWS V14.00,2013-01-26 07:20:00,
2013-01-25 23:25:00,37.2,31.3,29.85,SSW,198,3.0,6.0,79,0.00,,---,0.08,VWS V14.00,2013-01-26 07:25:00,
2013-01-25 23:30:00,37.0,31.7,29.85,SSW,198,3.0,6.0,81,0.00,,---,0.08,VWS V14.00,2013-01-26 07:30:00,
2013-01-25 23:35:00,37.0,30.8,29.85,SSW,195,3.0,7.0,78,0.00,,---,0.08,VWS V14.00,2013-01-26 07:35:00,
2013-01-25 23:40:00,36.9,31.0,29.85,SSW,195,2.0,7.0,79,0.00,,---,0.08,VWS V14.00,2013-01-26 07:40:00,
2013-01-25 23:45:00,36.8,30.9,29.85,SSW,195,4.0,5.0,79,0.00,,---,0.08,VWS V14.00,2013-01-26 07:45:00,
2013-01-25 23:50:00,36.5,30.6,29.85,SSW,195,2.0,5.0,79,0.00,,---,0.08,VWS V14.00,2013-01-26 07:50:00,
2013-01-25 23:55:00,36.3,30.7,29.85,SSW,195,0.0,5.0,80,0.00,,---,0.08,VWS V14.00,2013-01-26 07:55:00,